Location: ???????
(38.3360°N, 23.6977°E)
Time: 20:46:53
(UTC+00:00)

Cosmos 2344 - Pass Details

Date: 17 November 2025
Orbit: 1197 x 3045 km, 63.3° (Epoch: 11 December)

Event Time Altitude Azimuth Distance (km) Brightness Sun altitude
Rises 18:37:17 0° 324° (NW) 4,368 6.9 -40.3°
Reaches altitude 10° 18:39:49 10° 323° (NW) 3,518 6.3 -40.8°
Enters shadow 18:47:32 69° 275° (W) 1,799 4.2 -42.3°
